Flag for Germany Weather past 2 weeks in Hattingen, North Rhine-Westphalia, Germany

Now
66 °F

Passing clouds.


Feels Like: 66 °F
Forecast: 51 / 78 °F
Wind: 5 mph from Southwest

Location: Essen

Current Time: Aug 28, 2015 at 2:55:09 PM

Latest Report: Aug 28, 2015 at 2:00 PM


Visibility: 28 mi

Pressure: 30.07 "Hg

Humidity: 61%

Dew point: 52 °F

Location of HattingenLocation

Historic Weather in Hattingen — Graph

°F

Hattingen temperature yesterday

Maximum temperature yesterday: 73 °F (at 12:00 AM)
Minimum temperature yesterday: 54 °F (at 11:00 PM)
Average temperature yesterday: 62 °F

Past Weeks' High & Low Weather Summary

 TemperatureHumidityPressure
High84 °F (Aug 13, 5:00 PM)100% (Aug 16, 7:00 AM)30.25 "Hg (Aug 16, 7:00 AM)
Low51 °F (Aug 19, 4:00 AM)35% (Aug 23, 3:00 PM)29.53 "Hg (Aug 24, 5:00 PM)
Average65 °F76%29.93 "Hg
* Reported Aug 13 2:00 PM — Aug 28 2:00 PM, Hattingen, Weather by CustomWeather, © 2015

Note: Actual official high and low records may vary slightly from our data, if they occured in-between our weather recording intervals... More about our weather records

Advertising

Hattingen weather history for previous 24 hours

 ConditionsComfort  
Time TempWeatherWind HumidityBarometerVisibility
2:00 PM
Fri, Aug 28
66 °FPassing clouds.5 mph61%30.07 "Hg28 mi
1:00 PM63 °FPassing clouds.3 mph74%30.06 "Hg34 mi
12:00 PM63 °FOvercast.3 mph76%30.06 "Hg28 mi
11:00 AM60 °FPartly sunny.3 mph82%30.05 "Hg25 mi
10:00 AM58 °FPartly sunny.2 mph87%30.03 "Hg14 mi
9:00 AM57 °FLow clouds.2 mph95%30.03 "Hg5 mi
8:00 AM55 °FFog.3 mph99%30.01 "Hg3 mi
7:00 AM54 °FFog.3 mph100%29.99 "Hg2 mi
6:00 AM55 °FFog.3 mph99%29.98 "Hg4 mi
5:00 AM55 °FFog.2 mph99%29.96 "Hg4 mi
4:00 AM55 °FFog.2 mph99%29.95 "Hg4 mi
3:00 AM55 °FFog.3 mph99%29.94 "Hg4 mi
2:00 AM55 °FFog.3 mph100%29.93 "Hg4 mi
1:00 AM55 °FLow clouds.2 mph100%29.92 "Hg4 mi
11:00 PM
Thu, Aug 27
54 °FLight rain. Low clouds.2 mph100%29.91 "Hg2 mi
10:00 PM55 °FLight rain. Low clouds.2 mph99%29.89 "Hg4 mi
9:00 PM55 °FLight rain. Low clouds.2 mph99%29.89 "Hg3 mi
8:00 PM55 °FLight rain. Low clouds.2 mph99%29.88 "Hg6 mi
7:00 PM55 °FLight rain. Low clouds.3 mph97%29.87 "Hg6 mi
6:00 PM55 °FLight rain. Low clouds.3 mph97%29.88 "Hg3 mi
5:00 PM56 °FLight rain. Low clouds.5 mph95%29.87 "Hg4 mi
4:00 PM57 °FLight rain. Low clouds.3 mph95%29.87 "Hg7 mi
3:00 PM57 °FLight rain. Low clouds.6 mph89%29.88 "Hg4 mi
2:00 PM59 °FRain. Low clouds.3 mph96%29.87 "Hg4 mi
Weather by CustomWeather, © 2015

See weather overviewHow to use our weather pages